CW7693 Weather Reports


Display with metric or nautical units.
time (UTC)temp
F
wind
direction
speed
MPH
gust
MPH
rain 1hr
in
rain 24hr
in
rain mn
in
humidity
%
barometer
mb
20260504043102 47 142 0.0 0.0 0.00 0.00 0.00 82 1012.8
20260504041502 48 140 0.0 0.0 0.00 0.00 0.00 80 1012.8
20260504034503 49 140 0.0 0.0 0.00 0.00 0.00 80 1012.9
20260504033103 49 140 0.0 0.0 0.00 0.00 0.00 80 1013.0
20260504031502 49 140 0.0 0.0 0.00 0.00 0.00 79 1013.0
20260504024506 51 140 0.0 0.0 0.00 0.00 0.00 77 1013.0
20260504023103 51 140 0.0 0.0 0.00 0.00 0.00 76 1013.1
20260504021502 52 140 0.0 2.0 0.00 0.00 0.00 76 1013.1
20260504020142 52 140 1.0 2.0 0.00 0.00 0.00 74 1013.1
20260504014502 53 140 0.0 0.0 0.00 0.00 0.00 73 1013.1
20260504013119 54 140 0.0 0.0 0.00 0.00 0.00 73 1013.1
20260504011502 54 140 0.0 1.0 0.00 0.00 0.00 72 1013.1
20260504004503 54 140 0.0 3.0 0.00 0.00 0.00 71 1013.1
20260504003102 55 131 2.0 4.0 0.00 0.00 0.00 71 1013.3
20260504001503 56 126 3.0 5.0 0.00 0.00 0.00 68 1013.4
20260504000120 56 212 0.0 2.0 0.00 0.00 0.00 66 1013.5
20260503234504 57 229 1.0 2.0 0.00 0.00 0.00 65 1013.4
20260503233109 57 257 1.0 2.0 0.00 0.00 0.00 63 1013.4
20260503231503 58 258 1.0 3.0 0.00 0.00 0.00 60 1013.5
20260503230116 58 355 1.0 6.0 0.00 0.00 0.00 61 1013.6
20260503224504 58 331 2.0 4.0 0.00 0.00 0.00 61 1013.6
20260503223101 58 9 0.0 4.0 0.00 0.00 0.00 60 1013.6
20260503221502 58 314 1.0 3.0 0.00 0.00 0.00 60 1013.4
20260503214502 59 330 1.0 3.0 0.00 0.00 0.00 59 1013.1
20260503213104 59 286 0.0 3.0 0.00 0.00 0.00 59 1013.1
20260503211502 59 254 0.0 3.0 0.00 0.00 0.00 59 1012.9
20260503204502 60 309 1.0 3.0 0.00 0.00 0.00 57 1012.7
20260503203115 60 74 0.0 4.0 0.00 0.00 0.00 57 1012.4
20260503201502 61 300 1.0 4.0 0.00 0.00 0.00 55 1012.3
20260503200107 62 332 3.0 6.0 0.00 0.00 0.00 54 1012.3
20260503194502 62 5 2.0 8.0 0.00 0.00 0.00 54 1012.1
20260503193102 62 360 2.0 9.0 0.00 0.00 0.00 53 1011.9
20260503191504 63 360 4.0 10.0 0.00 0.00 0.00 52 1011.7
20260503190110 65 360 4.0 8.0 0.00 0.00 0.00 49 1011.4
20260503184503 67 360 1.0 4.0 0.00 0.00 0.00 46 1011.1
20260503183104 67 342 1.0 3.0 0.00 0.00 0.00 46 1011.0
20260503181503 68 360 1.0 4.0 0.00 0.00 0.00 46 1010.9
20260503174502 69 338 3.0 7.0 0.00 0.00 0.00 42 1010.7
20260503173106 70 302 1.0 7.0 0.00 0.00 0.00 41 1010.7
20260503171503 71 36 3.0 8.0 0.00 0.00 0.00 39 1010.7
20260503170105 71 9 2.0 8.0 0.00 0.00 0.00 38 1010.7
20260503100111 71 355 5.0 13.0 0.00 0.00 0.00 37 1012.5
20260503081603 66 311 2.0 4.0 0.00 0.00 0.00 43 1013.5
20260503071603 58 144 2.0 3.0 0.00 0.00 0.00 58 1014.0
20260503054624 48 360 1.0 4.0 0.00 0.00 0.00 78 1014.2
20260503053005 47 360 3.0 4.0 0.00 0.00 0.00 79 1014.3
20260503051602 47 145 1.0 4.0 0.00 0.00 0.00 81 1014.4
20260503050003 45 155 2.0 4.0 0.00 0.00 0.00 83 1014.5
20260503044604 45 153 1.0 3.0 0.00 0.00 0.00 84 1014.7